Voltar ao catálogo

CZ-6A DEB

AtivoPO
NORAD 61327·DEBRIS·🇨🇳 China

Lançado Aug 6, 2024 de Taiyuan Satellite Launch Center

Loading…

Próximas Passagens (próximas 24 horas)

TLE

AtualizadoSource: Space-Track

Época: Sep 13, 2026, 23:50 UTC

1 61327U 24140UQ  26256.99368219  .00084938  00000-0  12043-2 0  9992
2 61327  89.0680 255.2193 0056369  49.8838 310.7346 15.54270995112014

Acompanhe CZ-6A DEB em tempo real com AllMySat

Download on the App Store